Tucson Davis Monthan, AZ

6:05 AM MST on December 08, 2019 (GMT -0700)
Davis-Monthan Air Force Base

Weather History for KDMA - October, 2019

Change the Weather History Date:

Monday, October 21, 2019

  Actual Average Record
Temperature  
Mean Temperature 65 °F -  
Max Temperature 81 °F 79 °F 96 °F (2003)
Min Temperature 49 °F 54 °F 35 °F (1949)
Growing Degree Days 15 (Base 50)    
Moisture  
Dew Point 21 °F    
Average Humidity 22    
Maximum Humidity 37    
Minimum Humidity 9    
Precipitation  
Precipitation 0.00 in - - ()
Sea Level Pressure  
Sea Level Pressure 29.96 in    
Wind  
Wind Speed 7 mph (SSE)    
Max Wind Speed 12 mph    
Max Gust Speed -    
Visibility 10 miles    
Events      
Averages and records for this station are not official NWS values.
T = Trace of Precipitation, MM = Missing Value Source: NWS Daily Summary

Daily Weather History Graph

Daily Weather History Graph

Search for Another Location

Airport or City:

Astronomy

Oct. 21, 2019 Rise Set
Actual Time 6:31 AM MST 5:44 PM MST
Civil Twilight 6:06 AM MST 6:09 PM MST
Nautical Twilight 5:38 AM MST 6:37 PM MST
Astronomical Twilight 5:09 AM MST 7:06 PM MST
Moon No Moon Rise 1:40 PM MST (10/21)
Length of Visible Light 12h 02m
Length of Day
11h 12m
Waning Gibbous, 47% of the Moon is Illuminated
Oct 21
Waning Gibbous
Oct 27
New
Nov 4
First Quarter
Nov 12
Full
Nov 19
Last Quarter

Hourly Weather History & Observations

Time (MST) Temp. Dew Point Humidity Pressure Visibility Wind Dir Wind Speed Gust Speed Precip Events Conditions
12:58 AM 53.8 °F 25.3 °F 33% 29.89 in 10.0 mi ESE 6.9 mph - N/A   Clear
1:58 AM 52.3 °F 25.5 °F 35% 29.91 in 10.0 mi ESE 10.4 mph - N/A   Clear
2:58 AM 52.7 °F 25.2 °F 34% 29.89 in 10.0 mi East 6.9 mph - N/A   Clear
3:58 AM 51.3 °F 25.2 °F 36% 29.89 in 10.0 mi ESE 10.4 mph - N/A   Clear
4:58 AM 50.2 °F 24.3 °F 36% 29.92 in 10.0 mi ESE 9.2 mph - N/A   Clear
5:58 AM 49.6 °F 24.4 °F 37% 29.94 in 10.0 mi SE 8.1 mph - N/A   Clear
6:58 AM 49.5 °F 24.3 °F 37% 29.96 in 10.0 mi ESE 9.2 mph - N/A   Clear
7:58 AM 57.6 °F 24.6 °F 28% 29.99 in 10.0 mi Calm Calm - N/A   Clear
8:59 AM 65.7 °F 26.8 °F 23% 30.00 in 10.0 mi Calm Calm - N/A   Clear
9:59 AM 70.5 °F 23.5 °F 17% 30.00 in 10.0 mi Calm Calm - N/A   Clear
10:58 AM 73.6 °F 23.0 °F 15% 29.99 in 10.0 mi Calm Calm - N/A   Clear
11:58 AM 76.5 °F 20.1 °F 12% 29.98 in 10.0 mi SSW 4.6 mph - N/A   Clear
12:58 PM 78.6 °F 17.4 °F 10% 29.96 in 10.0 mi West 6.9 mph - N/A   Clear
1:58 PM 80.4 °F 16.3 °F 9% 29.93 in 10.0 mi West 4.6 mph - N/A   Clear
2:58 PM 81.1 °F 19.4 °F 10% 29.93 in 10.0 mi West 9.2 mph - N/A   Clear
4:58 PM 79.7 °F 18.3 °F 10% 29.94 in 10.0 mi NNW 10.4 mph - N/A   Clear
5:58 PM 74.8 °F 16.7 °F 11% 29.96 in 10.0 mi NW 8.1 mph - N/A   Clear
6:58 PM 72.0 °F 16.5 °F 12% 29.99 in 10.0 mi NW 8.1 mph - N/A   Clear
7:58 PM 70.7 °F 15.6 °F 12% 29.99 in 10.0 mi NW 11.5 mph - N/A   Clear
8:58 PM 67.3 °F 18.0 °F 15% 30.00 in 10.0 mi WSW 4.6 mph - N/A   Clear
9:58 PM 60.3 °F 20.1 °F 21% 30.03 in 10.0 mi SE 6.9 mph - N/A   Clear
10:58 PM 57.6 °F 21.0 °F 24% 30.03 in 10.0 mi SE 8.1 mph - N/A   Clear
11:58 PM 55.6 °F 22.1 °F 27% 30.04 in 10.0 mi SE 4.6 mph - N/A   Clear